Terminal Aerodrome Forecast
Issued by NWS Mt. Holly, NJ

Home | Current Version | Previous Version | Text Only | Print | Product List | Glossary On
Versions: 1 2 3 4 5 6 7 8 9 10 11 12 13 14 15 16 17 18 19 20 21 22 23 24 25 26 27 28 29 30 31 32 33 34 35 36 37 38 39
000
FTAK31 PANC 282334
TAFABE
TAF
PABE 282334Z 0100/0124 34009KT P6SM OVC012
      TEMPO 0103/0106 SCT012
     FM010600 04011KT P6SM SCT015=

USA.gov is the U.S. government's official web portal to all federal, state and local government web resources and services.